Taylorville, IL

10:52 AM CDT on May 25, 2018 (GMT -0500)
Taylorville Municipal

Weather History for KTAZ - May, 2014

Change the Weather History Date:

Tuesday, May 6, 2014

  Actual Average (KSPI) Record (KSPI)
Temperature  
Mean Temperature 66 °F -  
Max Temperature 80 °F 70 °F 90 °F (2012)
Min Temperature 51 °F 49 °F 34 °F (1944)
Growing Degree Days 16 (Base 50)    
Moisture  
Dew Point 51 °F    
Average Humidity 55    
Maximum Humidity 64    
Minimum Humidity 44    
Precipitation  
Precipitation 0.00 in - - ()
Sea Level Pressure  
Sea Level Pressure 29.80 in    
Wind  
Wind Speed 13 mph (ESE)    
Max Wind Speed 15 mph    
Max Gust Speed 24 mph    
Visibility 10 miles    
Events      
Averages and records for this station are not official NWS values.
T = Trace of Precipitation, MM = Missing Value Source: NWS Daily Summary

Daily Weather History Graph

Daily Weather History Graph

Search for Another Location

Airport or City:

Astronomy

May. 06, 2014 Rise Set
Actual Time 5:52 AM CDT 7:56 PM CDT
Civil Twilight 5:22 AM CDT 8:25 PM CDT
Nautical Twilight 4:46 AM CDT 9:01 PM CDT
Astronomical Twilight 4:07 AM CDT 9:41 PM CDT
Moon 12:08 PM CDT (5/6) 1:15 AM CDT (5/6)
Length of Visible Light 15h 02m
Length of Day
14h 03m
Waxing Crescent, 46% of the Moon is Illuminated
May 6
Waxing Crescent
May 6
First Quarter
May 14
Full
May 21
Last Quarter
May 28
New

Hourly Weather History & Observations

Time (CDT) Temp. Heat Index Dew Point Humidity Pressure Visibility Wind Dir Wind Speed Gust Speed Precip Events Conditions
12:15 AM 59.0 °F - 42.8 °F 55% 29.84 in 10.0 mi ENE 13.8 mph 20.7 mph N/A   Clear
12:35 AM 59.0 °F - 42.8 °F 55% 29.84 in 10.0 mi ENE 13.8 mph - N/A   Clear
12:55 AM 59.0 °F - 42.8 °F 55% 29.84 in 10.0 mi ENE 13.8 mph - N/A   Clear
1:15 AM 57.2 °F - 42.8 °F 59% 29.83 in 10.0 mi ENE 12.7 mph 18.4 mph N/A   Clear
1:35 AM 57.2 °F - 42.8 °F 59% 29.82 in 10.0 mi ENE 13.8 mph 24.2 mph N/A   Clear
1:55 AM 55.4 °F - 42.8 °F 63% 29.82 in 10.0 mi ENE 13.8 mph 18.4 mph N/A   Clear
2:15 AM 55.4 °F - 42.8 °F 63% 29.82 in 10.0 mi ENE 12.7 mph 20.7 mph N/A   Clear
2:35 AM 55.4 °F - 42.8 °F 63% 29.82 in 10.0 mi ENE 13.8 mph 17.3 mph N/A   Clear
6:55 AM 51.8 °F - 39.2 °F 62% 29.87 in 10.0 mi East 11.5 mph - N/A   Overcast
7:15 AM 51.8 °F - 39.2 °F 62% 29.87 in 10.0 mi East 15.0 mph 21.9 mph N/A   Mostly Cloudy
7:35 AM 51.8 °F - 39.2 °F 62% 29.88 in 10.0 mi East 11.5 mph 18.4 mph N/A   Scattered Clouds
7:55 AM 53.6 °F - 39.2 °F 58% 29.88 in 10.0 mi East 13.8 mph - N/A   Clear
8:15 AM 53.6 °F - 41.0 °F 62% 29.87 in 10.0 mi East 12.7 mph 19.6 mph N/A   Clear
8:35 AM 55.4 °F - 41.0 °F 58% 29.87 in 10.0 mi East 13.8 mph 21.9 mph N/A   Clear
9:15 AM 59.0 °F - 42.8 °F 55% 29.87 in 10.0 mi East 15.0 mph 18.4 mph N/A   Clear
9:35 AM 59.0 °F - 44.6 °F 59% 29.86 in 10.0 mi East 11.5 mph - N/A   Clear
9:55 AM 60.8 °F - 44.6 °F 55% 29.85 in 10.0 mi East 15.0 mph 19.6 mph N/A   Clear
10:15 AM 60.8 °F - 44.6 °F 55% 29.86 in 10.0 mi East 15.0 mph 19.6 mph N/A   Clear
10:35 AM 62.6 °F - 46.4 °F 55% 29.86 in 7.0 mi East 12.7 mph 17.3 mph N/A   Clear
10:55 AM 64.4 °F - 46.4 °F 52% 29.86 in 10.0 mi East 11.5 mph - N/A   Clear
11:15 AM 64.4 °F - 46.4 °F 52% 29.85 in 10.0 mi ESE 12.7 mph 18.4 mph N/A   Clear
11:35 AM 68.0 °F - 48.2 °F 49% 29.85 in 10.0 mi East 11.5 mph 17.3 mph N/A   Clear
11:55 AM 69.8 °F - 50.0 °F 49% 29.85 in 10.0 mi ESE 11.5 mph 16.1 mph N/A   Clear
12:15 PM 69.8 °F - 50.0 °F 49% 29.84 in 10.0 mi ESE 10.4 mph 16.1 mph N/A   Clear
12:35 PM 69.8 °F - 50.0 °F 49% 29.83 in 10.0 mi East 11.5 mph - N/A   Clear
12:55 PM 71.6 °F - 51.8 °F 50% 29.82 in 10.0 mi ESE 11.5 mph 17.3 mph N/A   Clear
1:15 PM 71.6 °F - 51.8 °F 50% 29.81 in 10.0 mi ESE 12.7 mph 17.3 mph N/A   Clear
1:35 PM 71.6 °F - 51.8 °F 50% 29.80 in 10.0 mi ESE 13.8 mph - N/A   Clear
1:55 PM 73.4 °F - 53.6 °F 50% 29.80 in 10.0 mi ESE 11.5 mph 16.1 mph N/A   Clear
2:15 PM 75.2 °F - 53.6 °F 47% 29.79 in 10.0 mi ESE 12.7 mph 19.6 mph N/A   Clear
2:35 PM 77.0 °F - 53.6 °F 44% 29.79 in 10.0 mi SE 10.4 mph 18.4 mph N/A   Clear
3:15 PM 77.0 °F - 55.4 °F 47% 29.77 in 10.0 mi SE 15.0 mph - N/A   Clear
3:35 PM 78.8 °F - 55.4 °F 44% 29.76 in 10.0 mi SE 15.0 mph 21.9 mph N/A   Clear
3:55 PM 78.8 °F - 57.2 °F 47% 29.75 in 10.0 mi SE 11.5 mph 20.7 mph N/A   Clear
4:15 PM 78.8 °F - 59.0 °F 51% 29.75 in 10.0 mi SE 12.7 mph 23.0 mph N/A   Clear
4:35 PM 78.8 °F - 59.0 °F 51% 29.75 in 10.0 mi ESE 13.8 mph - N/A   Clear
4:55 PM 80.6 °F 81.1 °F 59.0 °F 48% 29.74 in 10.0 mi SE 10.4 mph - N/A   Clear
5:15 PM 78.8 °F - 59.0 °F 51% 29.73 in 10.0 mi SE 11.5 mph 23.0 mph N/A   Clear
5:35 PM 78.8 °F - 59.0 °F 51% 29.72 in 10.0 mi ESE 12.7 mph 18.4 mph N/A   Clear
5:55 PM 78.8 °F - 60.8 °F 54% 29.72 in 10.0 mi ESE 12.7 mph - N/A   Clear
6:15 PM 78.8 °F - 60.8 °F 54% 29.73 in 10.0 mi ESE 10.4 mph 17.3 mph N/A   Clear
6:35 PM 78.8 °F - 60.8 °F 54% 29.72 in 10.0 mi ESE 8.1 mph - N/A   Clear
6:55 PM 78.8 °F - 60.8 °F 54% 29.73 in 10.0 mi SE 6.9 mph - N/A   Clear
7:15 PM 78.8 °F - 60.8 °F 54% 29.73 in 10.0 mi SSE 8.1 mph - N/A   Clear
7:35 PM 77.0 °F - 60.8 °F 57% 29.74 in 10.0 mi SSE 10.4 mph - N/A   Clear
7:55 PM 77.0 °F - 60.8 °F 57% 29.74 in 10.0 mi SSE 11.5 mph - N/A   Clear
8:15 PM 75.2 °F - 59.0 °F 57% 29.74 in 10.0 mi SSE 11.5 mph - N/A   Clear
8:35 PM 73.4 °F - 59.0 °F 61% 29.74 in 5.0 mi SSE 9.2 mph - N/A   Haze
8:55 PM 73.4 °F - 59.0 °F 61% 29.74 in 10.0 mi SE 10.4 mph - N/A   Clear
9:15 PM 71.6 °F - 59.0 °F 64% 29.74 in 10.0 mi SE 12.7 mph - N/A   Clear
9:35 PM 71.6 °F - 57.2 °F 60% 29.73 in 10.0 mi SE 10.4 mph - N/A   Clear
9:55 PM 71.6 °F - 57.2 °F 60% 29.75 in 10.0 mi SE 11.5 mph - N/A   Clear
10:15 PM 69.8 °F - 57.2 °F 64% 29.75 in 10.0 mi SSE 9.2 mph - N/A   Clear
10:55 PM 69.8 °F - 55.4 °F 60% 29.75 in 10.0 mi SSE 10.4 mph - N/A   Clear
11:15 PM 69.8 °F - 55.4 °F 60% 29.76 in 10.0 mi SSE 11.5 mph - N/A   Clear
11:35 PM 69.8 °F - 55.4 °F 60% 29.75 in 10.0 mi SSE 15.0 mph - N/A   Clear
11:55 PM 69.8 °F - 53.6 °F 56% 29.75 in 10.0 mi SSE 11.5 mph 19.6 mph N/A   Clear